| time (UTC) | temp C | wind direction | speed KPH | gust KPH | rain 1hr cm | rain 24hr cm | rain mn cm | humidity % | barometer mb |
| 20260504151010 | 20 | 189 | 6.4 | 8.0 | 0.00 | 0.00 | 0.00 | 10 | 1014.0 |
| 20260504150508 | 20 | 136 | 1.6 | 1.6 | 0.00 | 0.00 | 0.00 | 10 | 1014.1 |
| 20260504140933 | 17 | 211 | 4.8 | 4.8 | 0.00 | 0.00 | 0.00 | 10 | 1014.1 |
| 20260504140430 | 17 | 143 | 3.2 | 3.2 | 0.00 | 0.00 | 0.00 | 10 | 1013.9 |
| 20260504130355 | 13 | 169 | 1.6 | 3.2 | 0.00 | 0.00 | 0.00 | 10 | 1014.4 |
| 20260504120318 | 10 | 193 | 3.2 | 3.2 | 0.00 | 0.00 | 0.00 | 10 | 1014.8 |
| 20260504110242 | 9 | 146 | 1.6 | 1.6 | 0.00 | 0.00 | 0.00 | 10 | 1014.9 |
| 20260504100205 | 8 | 118 | 0.0 | 0.0 | 0.00 | 0.00 | 0.00 | 10 | 1014.6 |
| 20260504090128 | 10 | 159 | 1.6 | 3.2 | 0.00 | 0.00 | 0.00 | 10 | 1015.1 |
| 20260504081558 | 10 | 141 | 0.0 | 0.0 | 0.00 | 0.00 | 0.00 | 10 | 1015.1 |
| 20260504081054 | 10 | 148 | 0.0 | 0.0 | 0.00 | 0.00 | 0.00 | 10 | 1015.1 |
| 20260504080551 | 10 | 134 | 0.0 | 0.0 | 0.00 | 0.00 | 0.00 | 10 | 1015.1 |
| 20260504050404 | 6 | 112 | 0.0 | 0.0 | 0.00 | 0.00 | 0.00 | 10 | 1015.8 |
| 20260504045901 | 6 | 112 | 0.0 | 0.0 | 0.00 | 0.00 | 0.00 | 10 | 1015.6 |
| 20260504045356 | 6 | 112 | 0.0 | 0.0 | 0.00 | 0.00 | 0.00 | 10 | 1015.6 |
| 20260504044853 | 6 | 112 | 0.0 | 0.0 | 0.00 | 0.00 | 0.00 | 10 | 1015.6 |
| 20260504044350 | 6 | 112 | 0.0 | 0.0 | 0.00 | 0.00 | 0.00 | 10 | 1015.8 |
| 20260504043848 | 6 | 112 | 0.0 | 0.0 | 0.00 | 0.00 | 0.00 | 10 | 1015.6 |
| 20260504043344 | 6 | 112 | 0.0 | 0.0 | 0.00 | 0.00 | 0.00 | 10 | 1015.6 |
| 20260504042842 | 6 | 112 | 0.0 | 0.0 | 0.00 | 0.00 | 0.00 | 10 | 1015.6 |
| 20260504042338 | 6 | 112 | 0.0 | 0.0 | 0.00 | 0.00 | 0.00 | 10 | 1015.5 |
| 20260504041834 | 6 | 112 | 0.0 | 0.0 | 0.00 | 0.00 | 0.00 | 10 | 1015.5 |
| 20260504041330 | 6 | 112 | 0.0 | 0.0 | 0.00 | 0.00 | 0.00 | 10 | 1015.4 |
| 20260504040827 | 6 | 112 | 0.0 | 0.0 | 0.00 | 0.00 | 0.00 | 10 | 1015.5 |
| 20260504040325 | 6 | 112 | 0.0 | 0.0 | 0.00 | 0.00 | 0.00 | 10 | 1015.4 |
| 20260504035820 | 6 | 112 | 0.0 | 0.0 | 0.00 | 0.00 | 0.00 | 10 | 1015.5 |
| 20260504035318 | 6 | 112 | 0.0 | 0.0 | 0.00 | 0.00 | 0.00 | 10 | 1015.5 |
| 20260504034815 | 6 | 112 | 0.0 | 0.0 | 0.00 | 0.00 | 0.00 | 10 | 1015.5 |
| 20260504034313 | 7 | 112 | 0.0 | 0.0 | 0.00 | 0.00 | 0.00 | 10 | 1015.6 |
| 20260504033809 | 7 | 112 | 0.0 | 0.0 | 0.00 | 0.00 | 0.00 | 10 | 1015.4 |
| 20260504033308 | 7 | 112 | 0.0 | 0.0 | 0.00 | 0.00 | 0.00 | 10 | 1015.5 |
| 20260504032804 | 7 | 112 | 0.0 | 0.0 | 0.00 | 0.00 | 0.00 | 10 | 1015.4 |
| 20260504032301 | 7 | 112 | 0.0 | 0.0 | 0.00 | 0.00 | 0.00 | 10 | 1015.6 |
| 20260504031757 | 7 | 112 | 0.0 | 0.0 | 0.00 | 0.00 | 0.00 | 10 | 1015.4 |
| 20260504031255 | 7 | 112 | 0.0 | 0.0 | 0.00 | 0.00 | 0.00 | 10 | 1015.4 |
| 20260504030751 | 7 | 112 | 0.0 | 0.0 | 0.00 | 0.00 | 0.00 | 10 | 1015.4 |
| 20260504030248 | 7 | 112 | 0.0 | 0.0 | 0.00 | 0.00 | 0.00 | 10 | 1015.3 |
| 20260504025744 | 7 | 112 | 0.0 | 0.0 | 0.00 | 0.00 | 0.00 | 10 | 1015.3 |
| 20260504025241 | 7 | 112 | 0.0 | 0.0 | 0.00 | 0.00 | 0.00 | 10 | 1015.5 |
| 20260504024738 | 7 | 112 | 0.0 | 0.0 | 0.00 | 0.00 | 0.00 | 10 | 1015.3 |
| 20260504024235 | 7 | 112 | 0.0 | 0.0 | 0.00 | 0.00 | 0.00 | 10 | 1015.2 |
| 20260504023732 | 7 | 112 | 0.0 | 0.0 | 0.00 | 0.00 | 0.00 | 10 | 1015.3 |
| 20260504023228 | 7 | 112 | 0.0 | 0.0 | 0.00 | 0.00 | 0.00 | 10 | 1015.1 |
| 20260504022724 | 7 | 112 | 0.0 | 0.0 | 0.00 | 0.00 | 0.00 | 10 | 1015.3 |
| 20260504022220 | 8 | 112 | 0.0 | 0.0 | 0.00 | 0.00 | 0.00 | 10 | 1015.4 |
| 20260504021718 | 8 | 112 | 0.0 | 0.0 | 0.00 | 0.00 | 0.00 | 10 | 1015.3 |
| 20260504021215 | 8 | 112 | 0.0 | 0.0 | 0.00 | 0.00 | 0.00 | 10 | 1014.8 |
| 20260504020712 | 8 | 112 | 0.0 | 0.0 | 0.00 | 0.00 | 0.00 | 10 | 1015.0 |
| 20260504020208 | 8 | 112 | 0.0 | 0.0 | 0.00 | 0.00 | 0.00 | 10 | 1014.9 |
| 20260504015705 | 8 | 112 | 0.0 | 0.0 | 0.00 | 0.00 | 0.00 | 10 | 1014.7 |
| 20260504015201 | 8 | 112 | 0.0 | 0.0 | 0.00 | 0.00 | 0.00 | 10 | 1014.8 |
| 20260504014656 | 8 | 112 | 0.0 | 0.0 | 0.00 | 0.00 | 0.00 | 10 | 1014.9 |
| 20260504014154 | 8 | 112 | 0.0 | 0.0 | 0.00 | 0.00 | 0.00 | 10 | 1014.9 |
| 20260504013651 | 8 | 112 | 0.0 | 0.0 | 0.00 | 0.00 | 0.00 | 10 | 1014.6 |
| 20260504013148 | 9 | 112 | 0.0 | 0.0 | 0.00 | 0.00 | 0.00 | 10 | 1014.7 |
| 20260504012645 | 9 | 112 | 0.0 | 0.0 | 0.00 | 0.00 | 0.00 | 10 | 1014.9 |
| 20260504012143 | 9 | 112 | 0.0 | 0.0 | 0.00 | 0.00 | 0.00 | 10 | 1014.6 |
| 20260504011640 | 10 | 113 | 0.0 | 0.0 | 0.00 | 0.00 | 0.00 | 10 | 1014.5 |
| 20260504011136 | 10 | 112 | 0.0 | 0.0 | 0.00 | 0.00 | 0.00 | 10 | 1014.7 |
| 20260504010632 | 10 | 99 | 0.0 | 0.0 | 0.00 | 0.00 | 0.00 | 10 | 1014.8 |
| 20260504010128 | 10 | 98 | 0.0 | 0.0 | 0.00 | 0.00 | 0.00 | 10 | 1014.5 |
| 20260504005625 | 10 | 98 | 0.0 | 0.0 | 0.00 | 0.00 | 0.00 | 10 | 1014.6 |
| 20260504005122 | 11 | 98 | 0.0 | 0.0 | 0.00 | 0.00 | 0.00 | 10 | 1014.5 |
| 20260504004620 | 11 | 98 | 0.0 | 0.0 | 0.00 | 0.00 | 0.00 | 10 | 1014.7 |
| 20260504004117 | 11 | 98 | 0.0 | 0.0 | 0.00 | 0.00 | 0.00 | 10 | 1014.3 |
| 20260504003613 | 11 | 98 | 0.0 | 0.0 | 0.00 | 0.00 | 0.00 | 10 | 1014.5 |
| 20260504003110 | 12 | 98 | 0.0 | 0.0 | 0.00 | 0.00 | 0.00 | 10 | 1014.3 |
| 20260504002607 | 12 | 98 | 0.0 | 0.0 | 0.00 | 0.00 | 0.00 | 10 | 1014.4 |
| 20260504002104 | 12 | 98 | 0.0 | 0.0 | 0.00 | 0.00 | 0.00 | 10 | 1014.5 |
| 20260504001602 | 12 | 98 | 0.0 | 0.0 | 0.00 | 0.00 | 0.00 | 10 | 1014.4 |
| 20260504001057 | 13 | 101 | 0.0 | 0.0 | 0.00 | 0.00 | 0.00 | 10 | 1014.4 |
| 20260504000555 | 13 | 98 | 0.0 | 0.0 | 0.00 | 0.00 | 0.00 | 10 | 1014.2 |
| 20260504000052 | 13 | 98 | 0.0 | 0.0 | 0.00 | 0.00 | 0.00 | 10 | 1014.4 |
| 20260503235550 | 14 | 98 | 0.0 | 0.0 | 0.00 | 0.00 | 0.00 | 10 | 1014.1 |
| 20260503235047 | 14 | 92 | 0.0 | 0.0 | 0.00 | 0.00 | 0.00 | 10 | 1014.1 |
| 20260503234545 | 15 | 108 | 0.0 | 0.0 | 0.00 | 0.00 | 0.00 | 10 | 1014.0 |
| 20260503234043 | 15 | 112 | 0.0 | 0.0 | 0.00 | 0.00 | 0.00 | 10 | 1014.0 |
| 20260503233539 | 15 | 118 | 0.0 | 0.0 | 0.00 | 0.00 | 0.00 | 10 | 1014.2 |
| 20260503233035 | 15 | 96 | 0.0 | 0.0 | 0.00 | 0.00 | 0.00 | 10 | 1014.2 |
| 20260503232532 | 15 | 113 | 1.6 | 3.2 | 0.00 | 0.00 | 0.00 | 10 | 1014.1 |
| 20260503232030 | 15 | 116 | 3.2 | 3.2 | 0.00 | 0.00 | 0.00 | 10 | 1014.0 |
| 20260503231528 | 15 | 60 | 0.0 | 0.0 | 0.00 | 0.00 | 0.00 | 10 | 1014.0 |
| 20260503231024 | 16 | 144 | 1.6 | 1.6 | 0.00 | 0.00 | 0.00 | 10 | 1013.8 |
| 20260503230520 | 16 | 112 | 0.0 | 0.0 | 0.00 | 0.00 | 0.00 | 10 | 1013.7 |
| 20260503230018 | 16 | 154 | 4.8 | 8.0 | 0.00 | 0.00 | 0.00 | 10 | 1013.6 |
| 20260503225515 | 16 | 136 | 0.0 | 0.0 | 0.00 | 0.00 | 0.00 | 10 | 1013.7 |
| 20260503225010 | 16 | 103 | 0.0 | 0.0 | 0.00 | 0.00 | 0.00 | 10 | 1014.0 |
| 20260503224508 | 16 | 106 | 1.6 | 1.6 | 0.00 | 0.00 | 0.00 | 10 | 1013.8 |
| 20260503224005 | 16 | 37 | 3.2 | 4.8 | 0.00 | 0.00 | 0.00 | 10 | 1014.0 |
| 20260503223503 | 16 | 104 | 0.0 | 0.0 | 0.00 | 0.00 | 0.00 | 10 | 1013.8 |
| 20260503222958 | 16 | 23 | 3.2 | 4.8 | 0.00 | 0.00 | 0.00 | 10 | 1013.8 |
| 20260503222457 | 16 | 12 | 4.8 | 4.8 | 0.00 | 0.00 | 0.00 | 10 | 1014.1 |
| 20260503221954 | 17 | 98 | 0.0 | 0.0 | 0.00 | 0.00 | 0.00 | 10 | 1013.7 |
| 20260503221453 | 16 | 196 | 4.8 | 4.8 | 0.00 | 0.00 | 0.00 | 10 | 1013.8 |
| 20260503220950 | 17 | 124 | 1.6 | 1.6 | 0.00 | 0.00 | 0.00 | 10 | 1013.9 |
| 20260503220446 | 16 | 102 | 0.0 | 1.6 | 0.00 | 0.00 | 0.00 | 10 | 1014.0 |
| 20260503215943 | 17 | 124 | 3.2 | 3.2 | 0.00 | 0.00 | 0.00 | 10 | 1013.9 |
| 20260503215439 | 17 | 120 | 1.6 | 1.6 | 0.00 | 0.00 | 0.00 | 10 | 1014.0 |
| 20260503214937 | 17 | 72 | 1.6 | 1.6 | 0.00 | 0.00 | 0.00 | 10 | 1014.0 |
| 20260503214435 | 17 | 283 | 0.0 | 1.6 | 0.00 | 0.00 | 0.00 | 10 | 1013.9 |
| 20260503213932 | 17 | 177 | 3.2 | 4.8 | 0.00 | 0.00 | 0.00 | 10 | 1014.2 |
| 20260503213430 | 17 | 98 | 1.6 | 3.2 | 0.00 | 0.00 | 0.00 | 10 | 1014.0 |
| 20260503212926 | 17 | 130 | 3.2 | 4.8 | 0.00 | 0.00 | 0.00 | 10 | 1014.2 |
| 20260503212424 | 17 | 36 | 3.2 | 3.2 | 0.00 | 0.00 | 0.00 | 10 | 1014.2 |
| 20260503211921 | 17 | 18 | 4.8 | 8.0 | 0.00 | 0.00 | 0.00 | 10 | 1014.1 |
| 20260503211418 | 17 | 48 | 3.2 | 3.2 | 0.00 | 0.00 | 0.00 | 10 | 1014.1 |
| 20260503210913 | 17 | 155 | 1.6 | 3.2 | 0.00 | 0.00 | 0.00 | 10 | 1014.3 |
| 20260503210410 | 17 | 42 | 1.6 | 3.2 | 0.00 | 0.00 | 0.00 | 10 | 1014.3 |
| 20260503205905 | 17 | 99 | 0.0 | 1.6 | 0.00 | 0.00 | 0.00 | 10 | 1014.0 |
| 20260503205402 | 17 | 132 | 1.6 | 3.2 | 0.00 | 0.00 | 0.00 | 10 | 1014.1 |
| 20260503204858 | 17 | 66 | 4.8 | 4.8 | 0.00 | 0.00 | 0.00 | 10 | 1014.5 |
| 20260503204356 | 17 | 174 | 3.2 | 3.2 | 0.00 | 0.00 | 0.00 | 10 | 1014.5 |
| 20260503203853 | 17 | 210 | 4.8 | 4.8 | 0.00 | 0.00 | 0.00 | 10 | 1014.3 |
| 20260503203350 | 17 | 69 | 3.2 | 4.8 | 0.00 | 0.00 | 0.00 | 10 | 1014.3 |
| 20260503202847 | 17 | 89 | 0.0 | 1.6 | 0.00 | 0.00 | 0.00 | 10 | 1014.5 |
| 20260503202345 | 17 | 156 | 1.6 | 3.2 | 0.00 | 0.00 | 0.00 | 10 | 1014.6 |
| 20260503201843 | 17 | 258 | 1.6 | 3.2 | 0.00 | 0.00 | 0.00 | 10 | 1014.5 |
| 20260503201340 | 17 | 231 | 6.4 | 8.0 | 0.00 | 0.00 | 0.00 | 10 | 1014.1 |
| 20260503200838 | 17 | 38 | 1.6 | 3.2 | 0.00 | 0.00 | 0.00 | 10 | 1014.4 |
| 20260503200333 | 17 | 332 | 4.8 | 4.8 | 0.00 | 0.00 | 0.00 | 10 | 1014.6 |
| 20260503195831 | 17 | 206 | 9.7 | 11.3 | 0.00 | 0.00 | 0.00 | 10 | 1014.9 |
| 20260503195327 | 17 | 73 | 3.2 | 4.8 | 0.00 | 0.00 | 0.00 | 10 | 1014.7 |
| 20260503194824 | 16 | 159 | 3.2 | 4.8 | 0.00 | 0.00 | 0.00 | 10 | 1014.9 |
| 20260503194320 | 16 | 349 | 9.7 | 11.3 | 0.00 | 0.00 | 0.00 | 10 | 1014.9 |
| 20260503193816 | 17 | 104 | 4.8 | 8.0 | 0.00 | 0.00 | 0.00 | 10 | 1014.9 |
| 20260503193313 | 17 | 304 | 4.8 | 8.0 | 0.00 | 0.00 | 0.00 | 10 | 1015.1 |
| 20260503192809 | 16 | 214 | 3.2 | 3.2 | 0.00 | 0.00 | 0.00 | 10 | 1015.0 |
| 20260503192305 | 16 | 252 | 6.4 | 9.7 | 0.00 | 0.00 | 0.00 | 10 | 1015.5 |
| 20260503191800 | 16 | 329 | 4.8 | 8.0 | 0.00 | 0.00 | 0.00 | 10 | 1015.4 |
| 20260503191258 | 16 | 240 | 1.6 | 8.0 | 0.00 | 0.00 | 0.00 | 10 | 1015.4 |
| 20260503190754 | 15 | 86 | 1.6 | 1.6 | 0.00 | 0.00 | 0.00 | 10 | 1015.5 |
| 20260503190251 | 15 | 106 | 1.6 | 3.2 | 0.00 | 0.00 | 0.00 | 10 | 1015.6 |
| 20260503185749 | 15 | 14 | 3.2 | 3.2 | 0.00 | 0.00 | 0.00 | 10 | 1015.5 |
| 20260503185244 | 16 | 352 | 3.2 | 3.2 | 0.00 | 0.00 | 0.00 | 10 | 1015.9 |
| 20260503184738 | 15 | 32 | 8.0 | 9.7 | 0.00 | 0.00 | 0.00 | 10 | 1015.6 |
| 20260503184235 | 15 | 3 | 6.4 | 9.7 | 0.00 | 0.00 | 0.00 | 10 | 1015.8 |
| 20260503183732 | 15 | 25 | 8.0 | 11.3 | 0.00 | 0.00 | 0.00 | 10 | 1015.5 |
| 20260503183229 | 16 | 37 | 4.8 | 8.0 | 0.00 | 0.00 | 0.00 | 10 | 1015.9 |
| 20260503182727 | 16 | 138 | 1.6 | 3.2 | 0.00 | 0.00 | 0.00 | 10 | 1015.8 |
| 20260503182226 | 15 | 134 | 6.4 | 11.3 | 0.00 | 0.00 | 0.00 | 10 | 1016.0 |
| 20260503181722 | 15 | 65 | 3.2 | 8.0 | 0.00 | 0.00 | 0.00 | 10 | 1015.9 |
| 20260503181219 | 15 | 122 | 3.2 | 4.8 | 0.00 | 0.00 | 0.00 | 10 | 1015.9 |
| 20260503180715 | 15 | 221 | 6.4 | 9.7 | 0.00 | 0.00 | 0.00 | 10 | 1016.1 |
| 20260503180214 | 14 | 2 | 4.8 | 4.8 | 0.00 | 0.00 | 0.00 | 10 | 1016.2 |
| 20260503175710 | 14 | 101 | 1.6 | 1.6 | 0.00 | 0.00 | 0.00 | 10 | 1016.1 |
| 20260503175208 | 15 | 50 | 4.8 | 8.0 | 0.00 | 0.00 | 0.00 | 10 | 1016.2 |
| 20260503174704 | 15 | 32 | 11.3 | 14.5 | 0.00 | 0.00 | 0.00 | 10 | 1016.1 |
| 20260503174201 | 15 | 103 | 4.8 | 8.0 | 0.00 | 0.00 | 0.00 | 10 | 1016.2 |
| 20260503173656 | 15 | 334 | 6.4 | 9.7 | 0.00 | 0.00 | 0.00 | 10 | 1016.4 |
| 20260503173153 | 15 | 186 | 4.8 | 9.7 | 0.00 | 0.00 | 0.00 | 10 | 1016.2 |
| 20260503172650 | 13 | 60 | 4.8 | 8.0 | 0.00 | 0.00 | 0.00 | 10 | 1016.5 |
| 20260503172147 | 14 | 77 | 4.8 | 4.8 | 0.00 | 0.00 | 0.00 | 10 | 1016.4 |
| 20260503171643 | 15 | 90 | 6.4 | 9.7 | 0.00 | 0.00 | 0.00 | 10 | 1016.6 |
| 20260503171141 | 14 | 139 | 1.6 | 3.2 | 0.00 | 0.00 | 0.00 | 10 | 1016.4 |
| 20260503170638 | 14 | 98 | 3.2 | 3.2 | 0.00 | 0.00 | 0.00 | 10 | 1016.6 |
| 20260503170135 | 15 | 286 | 3.2 | 4.8 | 0.00 | 0.00 | 0.00 | 10 | 1016.2 |